| time (UTC) | temp F | wind direction | speed MPH | gust MPH | rain 1hr in | rain 24hr in | rain mn in | humidity % | barometer mb |
| 20260508062043 | 41 | 276 | 0.0 | 1.0 | 0.00 | 0.04 | 0.00 | 92 | 1012.7 |
| 20260508061526 | 41 | 276 | 0.0 | 0.0 | 0.00 | 0.04 | 0.00 | 92 | 1012.6 |
| 20260508061003 | 41 | 276 | 0.0 | 0.0 | 0.00 | 0.04 | 0.00 | 92 | 1012.7 |
| 20260508060547 | 41 | 276 | 0.0 | 0.0 | 0.00 | 0.04 | 0.00 | 92 | 1012.7 |
| 20260508060009 | 40 | 276 | 0.0 | 0.0 | 0.00 | 0.04 | 0.00 | 92 | 1012.8 |
| 20260508055554 | 40 | 276 | 0.0 | 0.0 | 0.00 | 0.04 | 0.00 | 92 | 1012.7 |
| 20260508055032 | 40 | 276 | 0.0 | 0.0 | 0.00 | 0.04 | 0.00 | 92 | 1012.8 |
| 20260508054512 | 40 | 276 | 0.0 | 0.0 | 0.00 | 0.04 | 0.00 | 92 | 1012.8 |
| 20260508054055 | 40 | 276 | 0.0 | 0.0 | 0.00 | 0.04 | 0.00 | 92 | 1012.9 |
| 20260508053535 | 40 | 276 | 0.0 | 0.0 | 0.00 | 0.04 | 0.00 | 92 | 1012.7 |
| 20260508053016 | 40 | 276 | 0.0 | 0.0 | 0.00 | 0.04 | 0.00 | 92 | 1012.8 |
| 20260508052600 | 40 | 276 | 0.0 | 0.0 | 0.00 | 0.04 | 0.00 | 91 | 1012.8 |
| 20260508052043 | 40 | 276 | 0.0 | 0.0 | 0.00 | 0.04 | 0.00 | 91 | 1012.8 |
| 20260508051527 | 40 | 276 | 0.0 | 0.0 | 0.00 | 0.04 | 0.00 | 91 | 1012.9 |
| 20260508051105 | 40 | 276 | 0.0 | 0.0 | 0.00 | 0.04 | 0.00 | 91 | 1013.0 |
| 20260508050545 | 40 | 276 | 0.0 | 0.0 | 0.00 | 0.04 | 0.00 | 91 | 1012.8 |
| 20260508050008 | 41 | 276 | 0.0 | 0.0 | 0.00 | 0.04 | 0.00 | 91 | 1012.8 |
| 20260508045549 | 41 | 276 | 0.0 | 0.0 | 0.00 | 0.04 | 0.00 | 91 | 1012.9 |
| 20260508045025 | 41 | 276 | 0.0 | 0.0 | 0.00 | 0.04 | 0.00 | 91 | 1012.9 |
| 20260508044506 | 41 | 276 | 0.0 | 0.0 | 0.00 | 0.04 | 0.00 | 91 | 1013.0 |
| 20260508044052 | 41 | 276 | 0.0 | 0.0 | 0.00 | 0.04 | 0.00 | 91 | 1013.0 |
| 20260508043529 | 41 | 276 | 0.0 | 0.0 | 0.00 | 0.04 | 0.00 | 91 | 1013.2 |
| 20260508043012 | 41 | 276 | 0.0 | 0.0 | 0.00 | 0.04 | 0.00 | 91 | 1013.2 |
| 20260508042554 | 41 | 276 | 0.0 | 0.0 | 0.00 | 0.04 | 0.00 | 91 | 1013.2 |
| 20260508042033 | 41 | 276 | 0.0 | 0.0 | 0.00 | 0.04 | 0.00 | 91 | 1013.2 |
| 20260508041513 | 41 | 276 | 0.0 | 0.0 | 0.00 | 0.04 | 0.00 | 91 | 1012.9 |
| 20260508041058 | 41 | 276 | 0.0 | 0.0 | 0.00 | 0.04 | 0.04 | 91 | 1012.9 |
| 20260508040538 | 41 | 276 | 0.0 | 0.0 | 0.00 | 0.04 | 0.04 | 91 | 1012.9 |
| 20260508040122 | 41 | 276 | 0.0 | 0.0 | 0.00 | 0.04 | 0.04 | 91 | 1012.9 |
| 20260508035543 | 41 | 276 | 0.0 | 0.0 | 0.00 | 0.04 | 0.04 | 91 | 1012.9 |
| 20260508035024 | 41 | 276 | 0.0 | 0.0 | 0.01 | 0.04 | 0.04 | 91 | 1012.9 |
| 20260508034505 | 41 | 276 | 0.0 | 0.0 | 0.01 | 0.04 | 0.04 | 91 | 1012.9 |
| 20260508034048 | 41 | 276 | 0.0 | 0.0 | 0.01 | 0.04 | 0.04 | 91 | 1012.9 |
| 20260508033531 | 41 | 276 | 0.0 | 0.0 | 0.01 | 0.04 | 0.04 | 90 | 1013.0 |
| 20260508033007 | 41 | 276 | 0.0 | 0.0 | 0.01 | 0.04 | 0.04 | 90 | 1013.0 |
| 20260508032552 | 41 | 276 | 0.0 | 0.0 | 0.01 | 0.04 | 0.04 | 90 | 1013.0 |
| 20260508032032 | 41 | 276 | 0.0 | 0.0 | 0.01 | 0.04 | 0.04 | 90 | 1013.0 |
| 20260508031511 | 41 | 276 | 0.0 | 0.0 | 0.01 | 0.04 | 0.04 | 90 | 1012.9 |
| 20260508031057 | 41 | 276 | 0.0 | 0.0 | 0.01 | 0.04 | 0.04 | 90 | 1013.0 |
| 20260508030535 | 41 | 276 | 0.0 | 0.0 | 0.01 | 0.04 | 0.04 | 89 | 1012.9 |
| 20260508030119 | 41 | 276 | 0.0 | 0.0 | 0.01 | 0.04 | 0.04 | 89 | 1013.1 |
| 20260508025540 | 42 | 276 | 0.0 | 0.0 | 0.01 | 0.04 | 0.04 | 89 | 1013.0 |
| 20260508025020 | 42 | 276 | 0.0 | 0.0 | 0.00 | 0.03 | 0.03 | 89 | 1013.0 |
| 20260508024500 | 42 | 276 | 0.0 | 0.0 | 0.00 | 0.03 | 0.03 | 88 | 1012.9 |
| 20260508024045 | 42 | 276 | 0.0 | 0.0 | 0.00 | 0.03 | 0.03 | 88 | 1012.9 |
| 20260508023525 | 42 | 276 | 0.0 | 0.0 | 0.00 | 0.03 | 0.03 | 88 | 1012.9 |
| 20260508023010 | 42 | 276 | 0.0 | 0.0 | 0.00 | 0.03 | 0.03 | 88 | 1012.7 |
| 20260508022548 | 42 | 276 | 0.0 | 0.0 | 0.00 | 0.03 | 0.03 | 88 | 1012.7 |
| 20260508022029 | 42 | 276 | 0.0 | 0.0 | 0.01 | 0.03 | 0.03 | 87 | 1012.7 |
| 20260508021508 | 43 | 276 | 0.0 | 0.0 | 0.01 | 0.03 | 0.03 | 87 | 1012.7 |
| 20260508021052 | 43 | 276 | 0.0 | 0.0 | 0.02 | 0.03 | 0.03 | 87 | 1012.7 |
| 20260508020532 | 43 | 276 | 0.0 | 0.0 | 0.02 | 0.03 | 0.03 | 87 | 1012.7 |
| 20260508020116 | 43 | 276 | 0.0 | 0.0 | 0.02 | 0.03 | 0.03 | 86 | 1012.6 |
| 20260508015539 | 44 | 276 | 0.0 | 0.0 | 0.02 | 0.03 | 0.03 | 86 | 1012.6 |
| 20260508015018 | 44 | 276 | 0.0 | 0.0 | 0.03 | 0.03 | 0.03 | 86 | 1012.6 |
| 20260508014603 | 44 | 276 | 0.0 | 0.0 | 0.03 | 0.03 | 0.03 | 86 | 1012.5 |
| 20260508014043 | 44 | 276 | 0.0 | 0.0 | 0.03 | 0.03 | 0.03 | 86 | 1012.5 |
| 20260508013522 | 44 | 276 | 0.0 | 0.0 | 0.03 | 0.03 | 0.03 | 85 | 1012.7 |
| 20260508013002 | 44 | 276 | 0.0 | 4.0 | 0.03 | 0.03 | 0.03 | 85 | 1012.8 |
| 20260508012548 | 44 | 276 | 0.0 | 6.0 | 0.02 | 0.02 | 0.02 | 85 | 1012.7 |
| 20260508012027 | 45 | 276 | 1.0 | 6.0 | 0.02 | 0.02 | 0.02 | 85 | 1012.7 |
| 20260508011507 | 45 | 280 | 0.0 | 4.0 | 0.02 | 0.02 | 0.02 | 84 | 1012.7 |
| 20260508011054 | 45 | 280 | 0.0 | 5.0 | 0.01 | 0.01 | 0.01 | 83 | 1012.7 |
| 20260508010530 | 45 | 280 | 0.0 | 6.0 | 0.01 | 0.01 | 0.01 | 83 | 1012.6 |
| 20260508010114 | 45 | 280 | 0.0 | 6.0 | 0.01 | 0.01 | 0.01 | 82 | 1012.5 |
| 20260508005541 | 45 | 277 | 1.0 | 7.0 | 0.01 | 0.01 | 0.01 | 82 | 1012.5 |
| 20260508005017 | 45 | 277 | 0.0 | 7.0 | 0.00 | 0.00 | 0.00 | 82 | 1012.4 |
| 20260508004606 | 46 | 275 | 0.0 | 7.0 | 0.00 | 0.00 | 0.00 | 82 | 1012.3 |
| 20260508004041 | 46 | 323 | 1.0 | 5.0 | 0.00 | 0.00 | 0.00 | 83 | 1012.3 |
| 20260508003521 | 46 | 332 | 0.0 | 4.0 | 0.00 | 0.00 | 0.00 | 82 | 1012.3 |
| 20260508003105 | 46 | 332 | 0.0 | 4.0 | 0.00 | 0.00 | 0.00 | 81 | 1012.2 |
| 20260508002544 | 46 | 228 | 0.0 | 6.0 | 0.00 | 0.00 | 0.00 | 81 | 1012.2 |
| 20260508002024 | 46 | 228 | 1.0 | 6.0 | 0.00 | 0.00 | 0.00 | 81 | 1012.0 |
| 20260508001504 | 46 | 248 | 0.0 | 4.0 | 0.00 | 0.00 | 0.00 | 81 | 1012.0 |
| 20260508001048 | 46 | 248 | 0.0 | 4.0 | 0.00 | 0.00 | 0.00 | 80 | 1011.9 |
| 20260508000531 | 46 | 248 | 0.0 | 1.0 | 0.00 | 0.00 | 0.00 | 80 | 1011.9 |
| 20260508000112 | 46 | 248 | 0.0 | 0.0 | 0.00 | 0.00 | 0.00 | 80 | 1011.8 |
| 20260507235535 | 46 | 248 | 0.0 | 0.0 | 0.00 | 0.00 | 0.00 | 80 | 1011.8 |
| 20260507235014 | 46 | 248 | 0.0 | 0.0 | 0.00 | 0.00 | 0.00 | 80 | 1011.7 |
| 20260507234605 | 46 | 248 | 0.0 | 0.0 | 0.00 | 0.00 | 0.00 | 80 | 1011.7 |
| 20260507234041 | 46 | 248 | 0.0 | 0.0 | 0.00 | 0.00 | 0.00 | 79 | 1011.8 |
| 20260507233522 | 46 | 245 | 0.0 | 0.0 | 0.00 | 0.00 | 0.00 | 79 | 1011.7 |
| 20260507233103 | 47 | 245 | 0.0 | 2.0 | 0.00 | 0.00 | 0.00 | 78 | 1011.7 |
| 20260507232542 | 47 | 245 | 0.0 | 8.0 | 0.00 | 0.00 | 0.00 | 77 | 1011.7 |
| 20260507232024 | 47 | 250 | 0.0 | 8.0 | 0.00 | 0.00 | 0.00 | 76 | 1011.7 |
| 20260507231503 | 48 | 229 | 0.0 | 12.0 | 0.00 | 0.00 | 0.00 | 75 | 1011.7 |
| 20260507231046 | 48 | 256 | 3.0 | 12.0 | 0.00 | 0.00 | 0.00 | 73 | 1011.7 |
| 20260507230526 | 49 | 222 | 2.0 | 11.0 | 0.00 | 0.00 | 0.00 | 71 | 1011.7 |
| 20260507230110 | 49 | 250 | 4.0 | 11.0 | 0.00 | 0.00 | 0.00 | 69 | 1011.6 |
| 20260507225534 | 50 | 272 | 4.0 | 11.0 | 0.00 | 0.00 | 0.00 | 67 | 1011.4 |
| 20260507225013 | 50 | 248 | 1.0 | 3.0 | 0.00 | 0.00 | 0.00 | 68 | 1011.4 |
| 20260507224601 | 50 | 249 | 0.0 | 4.0 | 0.00 | 0.00 | 0.00 | 67 | 1011.3 |
| 20260507224036 | 50 | 249 | 1.0 | 5.0 | 0.00 | 0.00 | 0.00 | 66 | 1011.4 |
| 20260507223521 | 50 | 249 | 1.0 | 5.0 | 0.00 | 0.00 | 0.00 | 66 | 1011.3 |
| 20260507223105 | 50 | 249 | 1.0 | 5.0 | 0.00 | 0.00 | 0.00 | 66 | 1011.3 |
| 20260507222538 | 50 | 249 | 1.0 | 5.0 | 0.00 | 0.00 | 0.00 | 65 | 1011.3 |
| 20260507222017 | 50 | 247 | 0.0 | 5.0 | 0.00 | 0.00 | 0.00 | 66 | 1011.3 |
| 20260507221601 | 50 | 248 | 0.0 | 5.0 | 0.00 | 0.00 | 0.00 | 67 | 1011.4 |
| 20260507221042 | 50 | 246 | 0.0 | 4.0 | 0.00 | 0.00 | 0.00 | 68 | 1011.3 |
| 20260507220519 | 50 | 246 | 0.0 | 4.0 | 0.00 | 0.00 | 0.00 | 67 | 1011.4 |
| 20260507215524 | 50 | 246 | 1.0 | 9.0 | 0.00 | 0.00 | 0.00 | 67 | 1011.4 |
| 20260507215006 | 50 | 264 | 2.0 | 8.0 | 0.00 | 0.00 | 0.00 | 65 | 1011.3 |
| 20260507214552 | 50 | 243 | 3.0 | 8.0 | 0.00 | 0.00 | 0.00 | 64 | 1011.3 |
| 20260507214028 | 51 | 257 | 1.0 | 7.0 | 0.00 | 0.00 | 0.00 | 63 | 1011.3 |
| 20260507213508 | 51 | 239 | 3.0 | 7.0 | 0.00 | 0.00 | 0.00 | 63 | 1011.2 |
| 20260507213053 | 51 | 245 | 3.0 | 7.0 | 0.00 | 0.00 | 0.00 | 64 | 1011.2 |
| 20260507212533 | 51 | 235 | 2.0 | 5.0 | 0.00 | 0.00 | 0.00 | 66 | 1011.2 |
| 20260507212012 | 51 | 235 | 0.0 | 5.0 | 0.00 | 0.00 | 0.00 | 65 | 1011.3 |
| 20260507211557 | 51 | 236 | 1.0 | 5.0 | 0.00 | 0.00 | 0.00 | 64 | 1011.2 |
| 20260507211037 | 51 | 235 | 1.0 | 7.0 | 0.00 | 0.02 | 0.00 | 63 | 1011.1 |
| 20260507210516 | 51 | 232 | 4.0 | 7.0 | 0.00 | 0.02 | 0.00 | 64 | 1011.2 |
| 20260507210100 | 51 | 200 | 2.0 | 5.0 | 0.00 | 0.02 | 0.00 | 64 | 1011.1 |
| 20260507205522 | 51 | 261 | 1.0 | 5.0 | 0.00 | 0.02 | 0.00 | 64 | 1011.2 |
| 20260507205002 | 51 | 260 | 1.0 | 5.0 | 0.00 | 0.02 | 0.00 | 64 | 1011.1 |
| 20260507204546 | 51 | 260 | 1.0 | 5.0 | 0.00 | 0.02 | 0.00 | 65 | 1011.2 |
| 20260507204026 | 51 | 260 | 0.0 | 5.0 | 0.00 | 0.02 | 0.00 | 68 | 1011.2 |
| 20260507203507 | 51 | 260 | 1.0 | 6.0 | 0.00 | 0.02 | 0.00 | 66 | 1011.2 |
| 20260507203057 | 51 | 262 | 1.0 | 5.0 | 0.00 | 0.02 | 0.00 | 67 | 1011.3 |
| 20260507202532 | 51 | 262 | 1.0 | 7.0 | 0.00 | 0.02 | 0.00 | 68 | 1011.3 |
| 20260507202010 | 50 | 250 | 1.0 | 6.0 | 0.00 | 0.02 | 0.00 | 69 | 1011.3 |
| 20260507201554 | 50 | 250 | 0.0 | 6.0 | 0.00 | 0.02 | 0.00 | 70 | 1011.4 |
| 20260507201035 | 49 | 250 | 0.0 | 2.0 | 0.00 | 0.02 | 0.00 | 77 | 1011.6 |
| 20260507200514 | 48 | 250 | 0.0 | 2.0 | 0.00 | 0.02 | 0.00 | 79 | 1011.5 |
| 20260507200058 | 48 | 250 | 0.0 | 2.0 | 0.00 | 0.02 | 0.00 | 81 | 1011.7 |
| 20260507195521 | 47 | 250 | 0.0 | 0.0 | 0.00 | 0.02 | 0.00 | 80 | 1011.8 |
| 20260507195107 | 47 | 250 | 0.0 | 8.0 | 0.00 | 0.02 | 0.00 | 78 | 1011.8 |
| 20260507194544 | 48 | 250 | 0.0 | 8.0 | 0.00 | 0.02 | 0.00 | 75 | 1012.1 |
| 20260507194024 | 49 | 246 | 2.0 | 15.0 | 0.00 | 0.02 | 0.00 | 70 | 1012.2 |
| 20260507193506 | 50 | 230 | 5.0 | 15.0 | 0.00 | 0.02 | 0.00 | 64 | 1012.3 |
| 20260507193054 | 50 | 263 | 2.0 | 7.0 | 0.00 | 0.02 | 0.00 | 61 | 1012.2 |
| 20260507192529 | 51 | 228 | 0.0 | 4.0 | 0.00 | 0.02 | 0.00 | 63 | 1012.1 |
| 20260507192011 | 51 | 228 | 0.0 | 4.0 | 0.00 | 0.02 | 0.00 | 64 | 1012.1 |
| 20260507191554 | 51 | 262 | 0.0 | 3.0 | 0.00 | 0.02 | 0.00 | 64 | 1012.2 |
| 20260507191034 | 50 | 262 | 0.0 | 5.0 | 0.00 | 0.02 | 0.00 | 64 | 1012.2 |
| 20260507190512 | 50 | 262 | 1.0 | 6.0 | 0.00 | 0.02 | 0.00 | 64 | 1012.2 |
| 20260507190057 | 50 | 262 | 3.0 | 6.0 | 0.00 | 0.02 | 0.00 | 64 | 1012.1 |
| 20260507185522 | 51 | 260 | 2.0 | 6.0 | 0.00 | 0.02 | 0.00 | 65 | 1012.0 |
| 20260507185101 | 51 | 258 | 1.0 | 6.0 | 0.00 | 0.02 | 0.00 | 66 | 1012.1 |
| 20260507184544 | 50 | 252 | 0.0 | 6.0 | 0.00 | 0.02 | 0.00 | 66 | 1012.2 |
| 20260507184020 | 50 | 244 | 1.0 | 8.0 | 0.00 | 0.02 | 0.00 | 66 | 1012.3 |
| 20260507183604 | 50 | 244 | 3.0 | 8.0 | 0.00 | 0.02 | 0.00 | 65 | 1012.3 |
| 20260507183045 | 50 | 238 | 0.0 | 8.0 | 0.00 | 0.02 | 0.00 | 65 | 1012.3 |
| 20260507182524 | 51 | 253 | 3.0 | 10.0 | 0.00 | 0.02 | 0.00 | 62 | 1012.5 |
| 20260507182004 | 51 | 237 | 1.0 | 6.0 | 0.00 | 0.02 | 0.00 | 57 | 1012.5 |
| 20260507181549 | 51 | 238 | 3.0 | 6.0 | 0.00 | 0.02 | 0.00 | 55 | 1012.4 |
| 20260507181027 | 51 | 300 | 1.0 | 6.0 | 0.00 | 0.02 | 0.00 | 55 | 1012.4 |
| 20260507180508 | 51 | 312 | 3.0 | 6.0 | 0.00 | 0.02 | 0.00 | 54 | 1012.4 |
| 20260507180053 | 51 | 312 | 0.0 | 6.0 | 0.00 | 0.02 | 0.00 | 54 | 1012.4 |
| 20260507175512 | 51 | 317 | 2.0 | 6.0 | 0.00 | 0.02 | 0.00 | 53 | 1012.3 |
| 20260507175052 | 52 | 327 | 0.0 | 6.0 | 0.00 | 0.02 | 0.00 | 54 | 1012.3 |
| 20260507174535 | 52 | 333 | 0.0 | 5.0 | 0.00 | 0.02 | 0.00 | 55 | 1012.3 |
| 20260507174012 | 52 | 334 | 0.0 | 5.0 | 0.00 | 0.02 | 0.00 | 57 | 1012.3 |
| 20260507173556 | 52 | 334 | 0.0 | 5.0 | 0.00 | 0.02 | 0.00 | 55 | 1012.3 |
| 20260507173044 | 52 | 342 | 0.0 | 7.0 | 0.00 | 0.02 | 0.00 | 53 | 1012.2 |
| 20260507172517 | 52 | 321 | 2.0 | 7.0 | 0.00 | 0.02 | 0.00 | 53 | 1012.2 |
| 20260507172100 | 52 | 302 | 0.0 | 6.0 | 0.00 | 0.02 | 0.00 | 54 | 1012.3 |
| 20260507171601 | 52 | 310 | 0.0 | 6.0 | 0.00 | 0.02 | 0.00 | 55 | 1012.4 |
| 20260507171020 | 52 | 23 | 0.0 | 6.0 | 0.00 | 0.02 | 0.00 | 55 | 1012.4 |
| 20260507170604 | 52 | 290 | 0.0 | 6.0 | 0.00 | 0.02 | 0.00 | 55 | 1012.5 |
| 20260507170026 | 53 | 58 | 2.0 | 8.0 | 0.00 | 0.02 | 0.00 | 53 | 1012.5 |
| 20260507165505 | 53 | 46 | 2.0 | 8.0 | 0.00 | 0.02 | 0.00 | 56 | 1012.6 |
| 20260507165049 | 52 | 285 | 2.0 | 6.0 | 0.00 | 0.02 | 0.00 | 58 | 1012.6 |
| 20260507164531 | 52 | 343 | 0.0 | 6.0 | 0.00 | 0.02 | 0.00 | 59 | 1012.7 |
| 20260507164009 | 51 | 344 | 1.0 | 6.0 | 0.00 | 0.02 | 0.00 | 59 | 1012.7 |
| 20260507163553 | 51 | 307 | 0.0 | 6.0 | 0.00 | 0.02 | 0.00 | 59 | 1012.8 |
| 20260507163033 | 51 | 329 | 1.0 | 6.0 | 0.00 | 0.02 | 0.00 | 61 | 1013.0 |
| 20260507162514 | 51 | 337 | 0.0 | 6.0 | 0.00 | 0.02 | 0.00 | 61 | 1012.9 |
| 20260507162057 | 51 | 340 | 1.0 | 6.0 | 0.00 | 0.02 | 0.00 | 62 | 1012.9 |
| 20260507161542 | 51 | 67 | 1.0 | 8.0 | 0.00 | 0.02 | 0.00 | 65 | 1012.9 |
| 20260507161017 | 51 | 61 | 1.0 | 8.0 | 0.00 | 0.02 | 0.00 | 63 | 1012.9 |
| 20260507160602 | 51 | 46 | 0.0 | 8.0 | 0.00 | 0.02 | 0.00 | 64 | 1013.1 |
| 20260507160042 | 51 | 339 | 0.0 | 4.0 | 0.00 | 0.02 | 0.00 | 65 | 1013.2 |
| 20260507155501 | 51 | 339 | 1.0 | 5.0 | 0.00 | 0.02 | 0.00 | 65 | 1013.3 |
| 20260507155047 | 51 | 340 | 1.0 | 5.0 | 0.00 | 0.02 | 0.00 | 65 | 1013.3 |
| 20260507154532 | 51 | 59 | 0.0 | 7.0 | 0.00 | 0.02 | 0.00 | 67 | 1013.3 |
| 20260507154004 | 51 | 70 | 1.0 | 7.0 | 0.00 | 0.02 | 0.00 | 67 | 1013.3 |
| 20260507153548 | 50 | 48 | 2.0 | 6.0 | 0.00 | 0.02 | 0.00 | 68 | 1013.3 |
| 20260507153028 | 50 | 277 | 0.0 | 8.0 | 0.00 | 0.02 | 0.00 | 67 | 1013.4 |
| 20260507152509 | 50 | 266 | 0.0 | 9.0 | 0.00 | 0.02 | 0.00 | 64 | 1013.4 |
| 20260507152052 | 50 | 266 | 4.0 | 9.0 | 0.00 | 0.02 | 0.00 | 63 | 1013.4 |
| 20260507151540 | 50 | 277 | 0.0 | 7.0 | 0.00 | 0.02 | 0.00 | 65 | 1013.4 |
| 20260507151013 | 50 | 291 | 1.0 | 7.0 | 0.00 | 0.02 | 0.00 | 63 | 1013.4 |
| 20260507150556 | 49 | 292 | 2.0 | 7.0 | 0.00 | 0.02 | 0.00 | 63 | 1013.4 |
| 20260507150037 | 49 | 321 | 0.0 | 5.0 | 0.00 | 0.02 | 0.00 | 66 | 1013.4 |
| 20260507145602 | 49 | 321 | 0.0 | 5.0 | 0.00 | 0.02 | 0.00 | 65 | 1013.4 |
| 20260507145041 | 49 | 321 | 1.0 | 5.0 | 0.00 | 0.02 | 0.00 | 67 | 1013.4 |
| 20260507144521 | 49 | 322 | 1.0 | 5.0 | 0.00 | 0.02 | 0.00 | 65 | 1013.3 |
| 20260507144105 | 48 | 322 | 2.0 | 5.0 | 0.00 | 0.02 | 0.00 | 66 | 1013.4 |
| 20260507143544 | 48 | 321 | 0.0 | 5.0 | 0.00 | 0.02 | 0.00 | 67 | 1013.5 |
| 20260507143025 | 48 | 321 | 2.0 | 5.0 | 0.00 | 0.02 | 0.00 | 67 | 1013.5 |
| 20260507142504 | 47 | 325 | 2.0 | 6.0 | 0.00 | 0.02 | 0.00 | 67 | 1013.5 |
| 20260507142046 | 47 | 325 | 2.0 | 6.0 | 0.00 | 0.02 | 0.00 | 68 | 1013.4 |
| 20260507141527 | 47 | 329 | 3.0 | 6.0 | 0.00 | 0.02 | 0.00 | 68 | 1013.5 |
| 20260507141012 | 47 | 341 | 0.0 | 4.0 | 0.00 | 0.04 | 0.00 | 67 | 1013.4 |
| 20260507140551 | 47 | 341 | 0.0 | 5.0 | 0.00 | 0.04 | 0.00 | 69 | 1013.6 |
| 20260507140031 | 47 | 342 | 1.0 | 4.0 | 0.00 | 0.04 | 0.00 | 69 | 1013.8 |
| 20260507135557 | 46 | 342 | 0.0 | 4.0 | 0.00 | 0.04 | 0.00 | 69 | 1013.8 |
| 20260507135037 | 46 | 342 | 0.0 | 4.0 | 0.00 | 0.04 | 0.00 | 71 | 1013.7 |
| 20260507134529 | 46 | 342 | 0.0 | 5.0 | 0.00 | 0.04 | 0.00 | 72 | 1013.7 |
| 20260507134103 | 46 | 342 | 1.0 | 5.0 | 0.00 | 0.04 | 0.00 | 72 | 1013.8 |
| 20260507133540 | 46 | 62 | 0.0 | 1.0 | 0.00 | 0.04 | 0.00 | 72 | 1013.9 |
| 20260507133021 | 45 | 62 | 0.0 | 2.0 | 0.00 | 0.04 | 0.00 | 72 | 1013.9 |
| 20260507132604 | 45 | 62 | 0.0 | 4.0 | 0.00 | 0.04 | 0.00 | 72 | 1014.0 |
| 20260507132044 | 45 | 63 | 2.0 | 4.0 | 0.00 | 0.04 | 0.00 | 72 | 1014.0 |
| 20260507131531 | 45 | 65 | 0.0 | 2.0 | 0.00 | 0.04 | 0.00 | 72 | 1013.9 |
| 20260507131003 | 44 | 65 | 0.0 | 2.0 | 0.00 | 0.05 | 0.00 | 73 | 1013.9 |
| 20260507130550 | 44 | 64 | 0.0 | 2.0 | 0.00 | 0.05 | 0.00 | 74 | 1013.9 |
| 20260507130009 | 44 | 64 | 0.0 | 2.0 | 0.00 | 0.05 | 0.00 | 73 | 1013.9 |
| 20260507125553 | 44 | 64 | 0.0 | 4.0 | 0.00 | 0.05 | 0.00 | 74 | 1013.9 |
| 20260507125032 | 44 | 64 | 0.0 | 4.0 | 0.00 | 0.05 | 0.00 | 74 | 1014.0 |
| 20260507124512 | 44 | 65 | 0.0 | 4.0 | 0.00 | 0.05 | 0.00 | 75 | 1014.0 |
| 20260507124100 | 43 | 65 | 0.0 | 5.0 | 0.00 | 0.05 | 0.00 | 76 | 1014.0 |
| 20260507123536 | 43 | 65 | 1.0 | 5.0 | 0.00 | 0.05 | 0.00 | 77 | 1013.9 |
| 20260507123020 | 43 | 65 | 1.0 | 5.0 | 0.00 | 0.05 | 0.00 | 78 | 1014.0 |
| 20260507122603 | 42 | 65 | 1.0 | 5.0 | 0.00 | 0.05 | 0.00 | 78 | 1013.9 |
| 20260507122043 | 42 | 64 | 0.0 | 3.0 | 0.00 | 0.05 | 0.00 | 82 | 1013.9 |
| 20260507121520 | 42 | 64 | 0.0 | 4.0 | 0.00 | 0.05 | 0.00 | 85 | 1013.9 |
| 20260507121104 | 41 | 64 | 0.0 | 4.0 | 0.00 | 0.06 | 0.00 | 86 | 1013.9 |
| 20260507120543 | 41 | 64 | 0.0 | 2.0 | 0.00 | 0.06 | 0.00 | 87 | 1014.0 |
| 20260507120006 | 40 | 64 | 0.0 | 0.0 | 0.00 | 0.06 | 0.00 | 87 | 1013.9 |
| 20260507115548 | 40 | 64 | 0.0 | 0.0 | 0.00 | 0.06 | 0.00 | 88 | 1014.0 |
| 20260507115028 | 40 | 64 | 0.0 | 0.0 | 0.00 | 0.06 | 0.00 | 88 | 1014.1 |
| 20260507114513 | 40 | 64 | 0.0 | 0.0 | 0.00 | 0.06 | 0.00 | 88 | 1014.1 |
| 20260507114054 | 40 | 64 | 0.0 | 0.0 | 0.00 | 0.06 | 0.00 | 88 | 1014.0 |
| 20260507113532 | 40 | 64 | 0.0 | 0.0 | 0.00 | 0.06 | 0.00 | 88 | 1013.9 |
| 20260507113012 | 40 | 64 | 0.0 | 2.0 | 0.00 | 0.06 | 0.00 | 89 | 1014.1 |
| 20260507112556 | 40 | 64 | 0.0 | 2.0 | 0.00 | 0.06 | 0.00 | 89 | 1014.0 |
| 20260507112036 | 39 | 64 | 0.0 | 0.0 | 0.00 | 0.06 | 0.00 | 89 | 1014.2 |
| 20260507111521 | 39 | 64 | 0.0 | 0.0 | 0.00 | 0.06 | 0.00 | 90 | 1014.2 |
| 20260507111059 | 39 | 64 | 0.0 | 1.0 | 0.00 | 0.08 | 0.00 | 91 | 1014.4 |
| 20260507110540 | 39 | 64 | 0.0 | 1.0 | 0.00 | 0.08 | 0.00 | 91 | 1014.5 |
| 20260507110001 | 39 | 64 | 0.0 | 4.0 | 0.00 | 0.08 | 0.00 | 92 | 1014.3 |
| 20260507105544 | 39 | 64 | 0.0 | 4.0 | 0.00 | 0.08 | 0.00 | 92 | 1014.3 |
| 20260507105025 | 40 | 65 | 0.0 | 0.0 | 0.00 | 0.08 | 0.00 | 93 | 1014.1 |
| 20260507104507 | 40 | 65 | 0.0 | 0.0 | 0.00 | 0.08 | 0.00 | 93 | 1014.0 |
| 20260507104050 | 40 | 65 | 0.0 | 1.0 | 0.00 | 0.08 | 0.00 | 93 | 1014.0 |
| 20260507103528 | 39 | 65 | 0.0 | 1.0 | 0.00 | 0.08 | 0.00 | 93 | 1014.1 |
| 20260507103009 | 39 | 65 | 0.0 | 0.0 | 0.00 | 0.08 | 0.00 | 93 | 1014.1 |
| 20260507102553 | 39 | 65 | 0.0 | 0.0 | 0.00 | 0.08 | 0.00 | 93 | 1013.9 |
| 20260507102033 | 39 | 65 | 0.0 | 0.0 | 0.00 | 0.08 | 0.00 | 93 | 1013.6 |
| 20260507101518 | 39 | 65 | 0.0 | 0.0 | 0.00 | 0.08 | 0.00 | 92 | 1013.5 |
| 20260507101056 | 39 | 65 | 0.0 | 0.0 | 0.00 | 0.11 | 0.00 | 92 | 1013.5 |
| 20260507100533 | 39 | 65 | 0.0 | 0.0 | 0.00 | 0.11 | 0.00 | 92 | 1013.5 |
| 20260507100118 | 39 | 65 | 0.0 | 0.0 | 0.00 | 0.11 | 0.00 | 92 | 1013.4 |
| 20260507095540 | 39 | 65 | 0.0 | 0.0 | 0.00 | 0.11 | 0.00 | 92 | 1013.3 |
| 20260507095020 | 39 | 65 | 0.0 | 0.0 | 0.00 | 0.11 | 0.00 | 93 | 1013.3 |
| 20260507094621 | 39 | 65 | 0.0 | 0.0 | 0.00 | 0.11 | 0.00 | 93 | 1013.3 |
| 20260507094044 | 39 | 65 | 0.0 | 0.0 | 0.00 | 0.11 | 0.00 | 92 | 1013.5 |
| 20260507093523 | 39 | 65 | 0.0 | 0.0 | 0.00 | 0.11 | 0.00 | 92 | 1013.6 |
| 20260507093003 | 39 | 65 | 0.0 | 0.0 | 0.00 | 0.11 | 0.00 | 92 | 1013.6 |
| 20260507092549 | 39 | 65 | 0.0 | 0.0 | 0.00 | 0.11 | 0.00 | 92 | 1013.6 |
| 20260507092026 | 39 | 65 | 0.0 | 0.0 | 0.00 | 0.11 | 0.00 | 92 | 1013.6 |
| 20260507091507 | 39 | 65 | 0.0 | 0.0 | 0.00 | 0.11 | 0.00 | 92 | 1013.6 |
| 20260507091055 | 39 | 65 | 0.0 | 0.0 | 0.00 | 0.15 | 0.00 | 92 | 1013.5 |
| 20260507090531 | 39 | 65 | 0.0 | 0.0 | 0.00 | 0.15 | 0.00 | 92 | 1013.5 |
| 20260507090116 | 39 | 65 | 0.0 | 0.0 | 0.00 | 0.15 | 0.00 | 92 | 1013.5 |
| 20260507085537 | 39 | 65 | 0.0 | 0.0 | 0.00 | 0.15 | 0.00 | 92 | 1013.6 |
| 20260507085016 | 39 | 65 | 0.0 | 0.0 | 0.00 | 0.15 | 0.00 | 92 | 1013.5 |
| 20260507084603 | 39 | 65 | 0.0 | 0.0 | 0.00 | 0.15 | 0.00 | 92 | 1013.3 |
| 20260507084040 | 40 | 65 | 0.0 | 0.0 | 0.00 | 0.15 | 0.00 | 92 | 1013.2 |
| 20260507083520 | 40 | 65 | 0.0 | 0.0 | 0.00 | 0.15 | 0.00 | 92 | 1013.3 |
| 20260507083104 | 40 | 65 | 0.0 | 0.0 | 0.00 | 0.15 | 0.00 | 92 | 1013.3 |
| 20260507082544 | 40 | 65 | 0.0 | 0.0 | 0.00 | 0.15 | 0.00 | 92 | 1013.5 |
| 20260507082027 | 39 | 65 | 0.0 | 0.0 | 0.00 | 0.15 | 0.00 | 92 | 1013.6 |
| 20260507081511 | 39 | 65 | 0.0 | 0.0 | 0.00 | 0.15 | 0.00 | 92 | 1013.6 |
| 20260507081048 | 39 | 65 | 0.0 | 0.0 | 0.00 | 0.20 | 0.00 | 92 | 1013.6 |
| 20260507080528 | 39 | 65 | 0.0 | 0.0 | 0.00 | 0.20 | 0.00 | 92 | 1013.6 |
| 20260507080111 | 39 | 65 | 0.0 | 0.0 | 0.00 | 0.20 | 0.00 | 92 | 1013.6 |
| 20260507075533 | 39 | 65 | 0.0 | 0.0 | 0.00 | 0.20 | 0.00 | 92 | 1013.5 |
| 20260507075013 | 39 | 65 | 0.0 | 0.0 | 0.00 | 0.20 | 0.00 | 92 | 1013.5 |
| 20260507074559 | 40 | 65 | 0.0 | 0.0 | 0.00 | 0.20 | 0.00 | 91 | 1013.5 |
| 20260507074037 | 40 | 65 | 0.0 | 0.0 | 0.00 | 0.20 | 0.00 | 91 | 1013.5 |
| 20260507073511 | 40 | 65 | 0.0 | 0.0 | 0.00 | 0.20 | 0.00 | 91 | 1013.4 |
| 20260507073059 | 40 | 65 | 0.0 | 0.0 | 0.00 | 0.20 | 0.00 | 91 | 1013.4 |
| 20260507072536 | 40 | 65 | 0.0 | 0.0 | 0.00 | 0.20 | 0.00 | 91 | 1013.3 |
| 20260507072014 | 40 | 65 | 0.0 | 0.0 | 0.00 | 0.20 | 0.00 | 91 | 1013.3 |
| 20260507071601 | 40 | 65 | 0.0 | 0.0 | 0.00 | 0.20 | 0.00 | 91 | 1013.4 |
| 20260507071039 | 40 | 65 | 0.0 | 0.0 | 0.00 | 0.26 | 0.00 | 91 | 1013.3 |
| 20260507070519 | 40 | 65 | 0.0 | 0.0 | 0.00 | 0.26 | 0.00 | 91 | 1013.3 |
| 20260507070109 | 40 | 65 | 0.0 | 0.0 | 0.00 | 0.26 | 0.00 | 91 | 1013.3 |
| 20260507065525 | 40 | 65 | 0.0 | 0.0 | 0.00 | 0.26 | 0.00 | 91 | 1013.3 |
| 20260507065004 | 40 | 65 | 0.0 | 0.0 | 0.00 | 0.26 | 0.00 | 91 | 1013.4 |
| 20260507064549 | 40 | 65 | 0.0 | 0.0 | 0.00 | 0.26 | 0.00 | 91 | 1013.4 |
| 20260507064030 | 41 | 65 | 0.0 | 0.0 | 0.00 | 0.26 | 0.00 | 91 | 1013.5 |
| 20260507063508 | 41 | 65 | 0.0 | 0.0 | 0.00 | 0.26 | 0.00 | 90 | 1013.5 |
| 20260507063054 | 41 | 65 | 0.0 | 0.0 | 0.00 | 0.26 | 0.00 | 90 | 1013.4 |
| 20260507062532 | 41 | 65 | 0.0 | 0.0 | 0.00 | 0.26 | 0.00 | 91 | 1013.5 |